483  
ASUS43 KGLD 211708  
RWRGLD  
 
GOODLAND FORECAST AREA HOURLY WEATHER ROUNDUP  
NATIONAL WEATHER SERVICE GOODLAND KS  
1100 AM MDT THU SEP 21 2017  
   
..OFFICIAL OBSERVATIONS
 
 
 
CITY SKY/WX TMP DP RH WIND PRES REMARKS
 
GOODLAND KS SUNNY 85 42 22 S15 29.76F  
HILL CITY KS SUNNY 88 52 29 S17G24 29.76F  
IMPERIAL NEB SUNNY 78 40 25 S10 29.74F  
MCCOOK NEB SUNNY 82 49 31 SE14 29.75F  
AKRON CO SUNNY 86 24 10 SW23G31 29.76F  
BURLINGTON CO SUNNY 84 35 17 SW23G30 29.80F  
LIMON CO SUNNY 83 24 11 SW16G25 29.83F  

 
   
..UNOFFICIAL OBSERVATIONS
 
 
 
CITY SKY/WX TMP DP RH WIND PRES REMARKS
 
LENORA KS N/A 81 32 17 MISG N/A  
NORTON KS SUNNY 88 39 18 SE12G18 29.74F  
SHARON SPRINGS N/A 88 44 21 S12G18 N/A  
TRENTON NEB N/A 81 32 17 S8 N/A  
KIT CARSON CO N/A 81 42 24 MISG N/A  
YUMA CO FAIR 88 32 13 SW13G21 29.74F  

 
 
 
CLICK HERE TO GO TO PREVIOUS BULLETINS.

The Nexlab KS Page
The Nexlab CO Page
The Nexlab NE Page Main Text Page